ブルックス第2彗星

16P/Brooks 2 (2014)

English version
Home page
Updated on May 29, 2016

---------------------------------------------------------------------

・ プロフィール

・ 写真集

・ 軌道要素

Epoch 2014 May 23.0 TT = JDT 2456800.5
T 2014 June 7.55947 TT                                  MPCW
q   1.4663383            (2000.0)            P               Q
n   0.16049971     Peri.  219.64981     +0.94514187     -0.32560469
a   3.3534091      Node   159.30690     +0.31538214     +0.88863885
e   0.5627321      Incl.    4.25825     +0.08509378     +0.32295909
P   6.14
From 368 observations 2001 July 12-2014 Dec. 31, mean residual 0".8.
     Nongravitational parameters A1 = +1.05, A2 = -0.2274.

・ 星図

・ 光度変化

        m1 = 11.3 + 5 logΔ + 15.0 log r

---------------------------------------------------------------------

軌道要素はM.P.E.C. 2015-A10に掲載されたものです。
星図はステラナビゲータ Ver.8 (アストロアーツ) で作成したものです。
光度グラフはComet for Windowsで作成したものです。

---------------------------------------------------------------------

Copyright(C) Seiichi Yoshida (comet@aerith.net). All rights reserved.